Cloud_Cover
100 100 100 100 100 100 82 47 64 83 92 60 31 54 75 44 15 91 53 32 5 32 15 5 40 38 99 46 97 99 88 16 5 40 100 76 92 92 99 100 94 88 0
100 100 100 100 100 100 100 100 96 69 59 56 26 5 5 6 8 24 85 51 50 72 32 99 5 95 16 68 98 89 94 100 100 12 12 100 72 96 100 100 100 100 44
100 100 100 100 100 100 100 100 100 97 64 39 56 28 5 5 5 5 21 100 100 72 5 54 82 13 84 100 89 100 100 97 97 100 94 67 94 60 100 24 85 100 100
100 100 100 100 99 100 100 100 100 100 88 93 84 56 19 65 5 17 10 18 99 50 36 6 5 89 13 96 100 100 100 100 100 100 100 100 100 100 98 70 100 98 100
100 100 100 100 100 100 100 100 100 100 91 99 79 81 11 20 52 5 27 86 82 98 30 48 62 98 100 100 100 100 100 100 100 100 100 100 100 100 98 100 100 75 100
100 100 100 98 100 100 100 100 100 100 97 100 100 100 98 91 74 89 81 56 56 100 82 99 5 86 100 100 100 100 100 100 100 100 100 100 100 100 100 100 100 100 94
100 100 100 100 100 100 100 100 100 100 100 100 100 100 100 100 100 100 99 31 78 99 93 98 100 100 100 100 100 100 100 100 100 100 100 87 100 100 100 100 100 100 86
100 100 100 100 100 100 100 100 100 100 100 100 100 100 100 100 100 100 100 100 86 100 99 55 77 100 82 100 89 2 12 100 100 100 100 100 100 100 100 100 100 100 86
100 100 100 100 100 100 100 100 100 100 100 100 100 100 100 100 100 100 91 100 100 100 100 100 100 100 100 100 100 99 43 29 97 100 100 100 100 100 100 100 100 100 100
100 100 100 100 100 100 100 100 98 100 100 100 100 100 94 100 100 100 97 100 100 100 77 10 53 15 23 32 62 100 100 80 0 2 78 99 100 100 100 100 100 100 100
100 100 100 100 100 100 100 100 100 100 100 100 100 100 100 100 95 100 15 24 32 11 15 4 1 0 0 0 0 80 85 100 38 29 28 13 99 100 100 100 100 100 100
100 100 100 100 100 100 100 100 100 100 100 100 100 100 73 72 5 20 11 5 5 4 0 1 0 0 0 0 0 0 0 77 99 77 100 97 79 42 86 100 100 100 100
100 100 100 100 100 100 100 100 100 100 100 100 90 98 73 8 13 2 4 2 1 0 0 0 0 0 0 0 0 0 0 0 0 12 100 100 76 77 9 20 100 100 100
100 100 100 100 100 100 100 100 99 100 84 99 100 34 26 0 0 0 0 0 0 0 0 0 0 0 0 0 0 0 0 0 0 0 82 100 68 22 11 3 9 100 100
100 100 99 86 51 89 96 92 98 100 100 100 100 95 30 4 4 4 2 1 0 0 0 0 0 0 0 0 0 0 0 0 0 0 0 0 0 0 0 0 27 3 100
6 4 74 0 0 21 10 4 5 5 15 27 12 31 5 5 5 5 5 5 4 4 1 0 0 0 0 0 0 0 0 0 0 0 0 0 0 0 0 0 21 100 100
99 98 79 24 7 6 5 4 1 3 5 5 5 5 5 5 5 5 5 5 5 5 5 4 0 0 0 0 0 0 0 0 0 0 0 0 0 0 0 0 0 0 6
100 100 100 100 100 100 100 100 79 77 81 32 5 5 5 5 5 5 5 5 5 5 5 5 5 1 5 5 5 4 0 0 0 0 0 0 0 0 0 0 0 0 0
100 100 100 99 96 95 64 15 8 19 25 8 12 5 5 5 5 5 5 5 5 5 5 5 5 5 5 5 2 4 5 1 0 0 0 0 0 0 0 0 0 0 0
100 100 100 100 100 100 99 99 97 96 98 72 53 6 5 11 18 9 5 13 17 15 5 5 5 17 8 6 5 5 2 0 2 0 0 0 0 0 0 0 0 0 0
66 100 100 100 100 100 100 100 100 100 100 100 100 98 88 94 99 99 100 100 98 88 100 88 100 100 100 100 60 6 5 5 5 5 2 0 0 0 0 0 0 0 0
5 5 5 5 5 5 7 60 99 100 100 100 100 100 100 100 100 100 88 82 71 82 82 98 98 100 100 100 100 100 100 100 8 5 4 2 2 2 0 0 0 0 0
46 54 53 49 8 7 5 5 10 5 5 5 5 5 5 5 5 5 11 66 70 82 80 90 94 100 100 100 100 100 100 100 100 80 89 14 5 5 5 1 0 0 0
5 5 5 7 18 23 12 5 5 5 5 5 5 7 5 14 27 48 72 54 76 96 100 100 100 100 100 100 100 100 100 100 94 100 100 74 5 5 5 5 1 0 0
5 5 5 5 5 41 48 19 6 54 100 65 48 10 5 5 34 98 100 100 98 98 100 100 100 100 100 100 100 100 100 100 100 100 100 97 66 37 11 5 5 5 0
5 5 5 5 5 5 13 100 44 17 26 69 43 67 96 86 98 100 100 100 100 90 100 90 98 87 87 66 91 86 99 100 100 100 71 86 90 99 100 83 58 36 16